Preview of NWS' New Version of Forecast
This preview is not operational and should not be used for support decisions.
Latest weather observations around

Brunswick, Malcolm McKinnon Airport (KSSI)

Using English Units (Switch to International System of Units)
Date/ Time (EDT) Wind (mph) Vis. (mi) Weather Sky Cond. Temp (°F) Rel. Humidity Wind Chill (°F) Heat Index (°F) Pressure Precip. (in)
Air Dwpt 6 hour Altimeter (inHg) Sea level (inHg) 1 hr 3 hr 6 hr
Max Min
Sep 16 09:53 N 8 10 Partly Cloudy SCT014 82        %     30.01 30.01      
Sep 16 08:53 N 13 10 Partly Cloudy SCT007 78        %     30 30      
Sep 16 08:41 NNW 11 10 Mostly Clear FEW006 78        %     30        
Sep 16 07:53 NNW 7 10 Clear CLR 76        %     29.98 29.98     0
Sep 16 07:38 N 8 10 Mostly Clear FEW006 FEW013 75        %     29.98        
Sep 16 06:53 N 8 10 Clear CLR 76        %     29.97 29.97      
Sep 16 05:53 N 9 10 Clear CLR 77        %     29.96 29.96      
Sep 16 04:53 NNW 7 10 Clear CLR 77        %     29.94 29.95   0  
Sep 16 03:53 NNW 8 10 Clear CLR 77        %     29.95 29.96 0    
Sep 16 02:53 NNW 8 9 Light Rain FEW016 SCT028 BKN038 79        %     29.96 29.96 0    
Sep 16 02:25 N 8 10 Partly Cloudy SCT018 SCT047 80        %     29.97        
Sep 16 02:18 N 9 10 Mostly Cloudy SCT018 BKN023 BKN035 81        %     29.97        
Sep 16 01:53 NNE 7 10 Partly Cloudy FEW018 SCT023 81        %     29.97 29.98      
Sep 16 00:53 NNE 10 10 Clear CLR 82        %     29.97 29.97      
Sep 15 23:53 NNE 10 10 Partly Cloudy SCT019 SCT024 82        %     29.97 29.97      
Sep 15 22:53 NNE 11 10 Mostly Clear FEW022 82        %     29.98 29.98      
Sep 15 21:53 NNE 10 10 Mostly Clear FEW020 82        %     29.98 29.98      
Sep 15 20:53 NNE 10 10 Mostly Clear FEW019 FEW026 82        %     29.98 29.98      
Sep 15 19:53 NNE 14 10 Clear CLR 83        %     29.97 29.97     0
Sep 15 18:53 NNE 11 10 Clear CLR 84        %     29.97 29.98      
Sep 15 17:53 NE 17 10 Clear CLR 86        %     29.97 29.98      
Sep 15 16:53 NE 16 10 Mostly Cloudy FEW022 SCT050 BKN080 86        %     29.98 29.98 0 0  
Sep 15 16:38 NE 14 10 Mostly Cloudy SCT022 SCT039 BKN055 84        %     29.98   0    
Sep 15 15:53 NE 16 10 Light Rain BKN021 BKN026 BKN033 87        %     29.98 29.98 0    
Sep 15 14:53 NE 23 10 Mostly Cloudy and Windy SCT022 BKN027 BKN036 87        %     29.99 30      
Sep 15 13:53 NE 16 10 Mostly Cloudy BKN022 BKN028 88        %     30.01 30.02     0
Sep 15 12:53 NE 17 10 Mostly Cloudy BKN019 BKN025 BKN040 86        %     30.03 30.03      
Sep 15 11:53 NNE 17 10 Cloudy BKN020 OVC030 85        %     30.02 30.02      
Sep 15 10:53 NNE 16 10 Cloudy BKN019 BKN027 OVC048 84        %     30.03 30.04 0 0  
Sep 15 09:53 NNE 14 10 Light Rain SCT014 BKN020 OVC032 82        %     30.03 30.03 0    
Sep 15 09:08 NNE 11 10 Mostly Cloudy FEW012 SCT017 BKN025 82        %     30.03        
Sep 15 08:53 N 13 10 Mostly Cloudy SCT011 SCT020 BKN031 81        %     30.04 30.04      
Sep 15 08:43 N 13 10 Mostly Cloudy SCT011 SCT017 BKN027 80        %     30.03        
Sep 15 08:18 N 11 10 Cloudy BKN012 BKN018 OVC050 80        %     30.03        
Sep 15 07:53 N 9 10 Mostly Cloudy BKN018 BKN025 81        %     30.03 30.03      
Sep 15 07:25 N 8 10 Mostly Cloudy SCT019 BKN023 79        %     30.03        
Sep 15 06:53 N 8 10 Partly Cloudy SCT019 SCT025 78        %     30.03 30.03      
Sep 15 05:53 N 7 10 Partly Cloudy SCT021 SCT032 79        %     30.02 30.02      
Sep 15 05:46 N 8 10 Mostly Cloudy SCT021 SCT029 BKN033 80        %     30.01        
Sep 15 05:14 NNE 11 10 Mostly Cloudy SCT021 BKN027 81        %     30        
Sep 15 04:53 NNE 10 10 Partly Cloudy FEW021 SCT026 81        %     30 30      
Sep 15 04:11 NE 10 10 Mostly Cloudy SCT020 BKN028 81        %     30.01        
Sep 15 03:53 NE 9 10 Partly Cloudy SCT022 81        %     30.01 30.01      
Sep 15 03:24 NE 11 10 Mostly Cloudy BKN020 BKN026 81        %     30.01        
Sep 15 02:53 NE 11 10 Partly Cloudy SCT020 81        %     30.02 30.02      
Sep 15 01:53 NE 11 10 Mostly Cloudy BKN019 82        %     30.04 30.04      
Sep 15 01:42 NE 10 10 Mostly Cloudy BKN021 BKN030 82        %     30.04        
Sep 15 01:28 NE 14 10 Mostly Cloudy SCT020 SCT024 BKN030 82        %     30.05        
Sep 15 00:53 NE 13 10 Mostly Cloudy BKN020 BKN026 BKN033 82        %     30.06 30.06      
Sep 15 00:14 NE 10 10 Mostly Cloudy BKN022 82        %     30.07        
Sep 14 23:53 NE 11 10 Partly Cloudy SCT019 82        %     30.07 30.07      
Sep 14 23:40 NE 11 10 Partly Cloudy SCT019 82        %     30.07        
Sep 14 23:22 NNE 17 10 Mostly Cloudy SCT019 BKN026 BKN033 82        %     30.07        
Sep 14 22:53 NE 14 10 Mostly Cloudy SCT022 SCT030 BKN042 82        %     30.08 30.09      
Sep 14 22:23 NE 14 10 Partly Cloudy SCT021 SCT032 82        %     30.08        
Sep 14 22:14 NE 15 10 Mostly Cloudy SCT021 BKN026 83        %     30.08        
Sep 14 21:53 NE 14 10 Mostly Clear FEW021 83        %     30.08 30.08      
Sep 14 20:53 NE 13 10 Mostly Clear FEW025 83        %     30.08 30.08      
Sep 14 19:53 NE 9 10 Partly Cloudy SCT028 83        %     30.07 30.07     0
Sep 14 18:53 NE 16 10 Clear CLR 84        %     30.07 30.07      
Sep 14 17:53 ENE 16 10 Mostly Clear FEW020 85        %     30.07 30.08      
Sep 14 16:53 NE 20 10 Partly Cloudy and Windy SCT022 SCT028 86        %     30.08 30.09   0  
Sep 14 16:36 NE 16 10 Mostly Cloudy SCT021 BKN030 87        %     30.08        
Sep 14 15:53 ENE 15 10 Mostly Cloudy BKN020 86        %     30.08 30.08 0    
Sep 14 14:53 ENE 14 10 Mostly Clear FEW023 FEW034 88        %     30.1 30.1      
Sep 14 13:53 ENE 15 10 Partly Cloudy FEW023 SCT031 87        %     30.12 30.12 0   0
Sep 14 12:53 ENE 18 10 Light Rain CLR 88        %     30.14 30.14 0    
Sep 14 11:53 NE 18 10 Light Rain CLR 88        %     30.14 30.14 0    
Sep 14 10:53 ENE 16 10 Light Rain CLR 87        %     30.14 30.14 0 0  
Sep 14 09:53 ENE 13 10 Light Rain CLR 86        %     30.14 30.14 0    
Sep 14 08:53 NE 14 10 Light Rain FEW025 SCT042 84        %     30.12 30.12 0    
Sep 14 07:53 ENE 11 10 Light Rain FEW026 82        %     30.11 30.11 0   0
Sep 14 06:53 ENE 13 10 Light Rain CLR 81        %     30.1 30.1 0    
Sep 14 05:53 ENE 13 10 Light Rain FEW027 SCT037 82        %     30.09 30.1 0    
Sep 14 04:53 ENE 10 10 Light Rain FEW025 FEW042 81        %     30.08 30.09 0 0  
Sep 14 03:53 ENE 14 10 Light Rain FEW028 SCT039 82        %     30.08 30.08 0    
Sep 14 03:01 ENE 13 10 Light Rain FEW027 82        %     30.1   0    
Sep 14 02:53 ENE 10 10 Light Rain BKN029 82        %     30.09 30.1 0    
Sep 14 01:53 ENE 11 10 Light Rain FEW028 82        %     30.11 30.11 0   0
Sep 14 00:53 ENE 11 10 Light Rain FEW026 82        %     30.12 30.12 0    
Sep 13 23:53 ENE 14 10 Light Rain FEW024 82        %     30.11 30.11 0    
Sep 13 22:53 ENE 15 10 Light Rain FEW025 82        %     30.13 30.14 0 0  
Sep 13 22:15 ENE 15 10 Clear   83        %     30.14   0    
Sep 13 22:03 ENE 15 10 Clear   83        %     30.14   0    
Sep 13 21:53 E 14 10 Clear   83        %     30.13 30.14 0    
Sep 13 21:00 ENE 15 10 Light Rain BKN021 83        %     30.12   0    
Sep 13 20:53 NE 14 10 Light Rain SCT021 83        %     30.13 30.13 0    
Sep 13 19:53 NE 14 10 Light Rain FEW024 83        %     30.11 30.11 0   0
Sep 13 18:53 ENE 14 10 Light Rain FEW024 SCT043 84        %     30.1 30.1 0    
Sep 13 17:53 ENE 14 10 Light Rain FEW025 86        %     30.1 30.1 0    
Sep 13 16:53 ENE 15 10 Light Rain FEW027 85        %     30.09 30.1 0 0  
Sep 13 15:53 ENE 15 10 Partly Cloudy FEW026 SCT036 SCT047 85        %     30.11 30.11      
Sep 13 14:53 ENE 15 10 Mostly Clear FEW028 FEW037 86        %     30.12 30.13      
Sep 13 13:53 ENE 16 10 Mostly Cloudy BKN032 87        %     30.14 30.14      
Sep 13 12:53 NE 13 10 Partly Cloudy FEW024 SCT033 87        %     30.14 30.14      
Sep 13 11:53 ENE 14 10 Mostly Clear FEW024 86        %     30.15 30.15      
Sep 13 10:53 ENE 14 10 Partly Cloudy SCT026 84        %     30.14 30.14      
May 15 11:53 SSE 15 10 Mostly Cloudy FEW015 BKN100 80        %     30 30      
May 14 23:27 ESE 15 10 Cloudy BKN014 BKN022 OVC110 74        %     30   0    
May 14 00:53 Calm 10 Clear CLR 75        %     30.05 30.05      
May 13 07:53   10 Clear CLR 73        %     30.11 30.11      
May 13 02:53 SSW 6 10 Clear CLR 74        %     30.08 30.08      
May 12 09:53 S 8 10 Clear CLR 79        %     30.15 30.15      
May 12 03:53 SSW 5 10 Clear CLR 73        %     30.09 30.09      
May 11 20:53 SSE 6 10 Clear CLR 77        %     30.06 30.06      
Jun 11 23:53 E 5 10 Mostly Clear FEW023 79        %     30.16 30.16      
Jun 10 10:53 ENE 9 10 Mostly Clear FEW019 82        %     30.11 30.11      
Jun 10 05:53 Calm 10 Clear CLR 69        %     30.03 30.03      
Jun 08 11:07 N 11 10 Cloudy BKN011 BKN018 OVC033 71        %     29.83   0    
Jun 07 23:53 NE 15 2.5 Rain and Fog/Mist BKN013 OVC022 73        %     29.75 29.75 0    
Jun 07 22:53 NE 18 5 Rain and Fog/Mist BKN013 OVC018 74        %     29.72 29.72 0 1  
Jun 07 21:58 NE 18 3 Rain and Fog/Mist FEW009 BKN020 OVC039 74        %     29.71   0    
Jun 07 21:53   3 Heavy Rain and Fog/Mist FEW011 SCT017 OVC037 74        %     29.71 29.71 0    
Jun 07 17:40 ENE 6 7 Light Rain FEW009 BKN017 OVC100 75        %     29.7   0    
Jun 07 16:04 E 6 10 Light Rain BKN015 BKN046 OVC060 77        %     29.7   0    
Jun 07 14:20 ENE 6 5 Rain and Fog/Mist SCT028 BKN060 OVC120 77        %     29.72   0    
Notice The following observation data may not be complete
Jun 05 18:56   3 Light Rain and Fog/Mist BKN033 BKN048 OVC110          %         0    
Jun 05 18:41 WSW 6 1.5 Heavy Rain and Fog/Mist FEW025 BKN033 BKN049 77        %     29.84   0    
Jun 05 16:29 S 10 4 Light Rain FEW011 BKN045 OVC060 81        %     29.81   0